Date String (YYYY-MM-DD hh:mm:ss) UTC,Instrument flags,Ambient pressure (hPa),Sample flow (lpm),Bypass flow (lpm),Sample temperature (°C),Ambient temperature (°C),ASC tube jacket temperature (°C),LED temperature (°C),Box temperature (°C),Sample RH (%),Span deviation,Mass concentration (μg/m³),Mass concentration (μg/m³),Mass concentration (μg/m³)
DateTimeUTC,F1_M11,P_M11,Q1_M11,Q2_M11,T1_M11,T2_M11,T3_M11,T4_M11,T5_M11,U1_M11,ZSPAN_M11,X0_M11,X2_M11,X1_M11
2021-08-29 03:00:00,,0829.4,5.00,0.00,29.3,25.9,00.0,38.3,30.6,28.7,0001.4,0028.54,0017.06,0015.39
2021-08-29 03:01:00,,0829.5,5.00,0.00,29.2,25.5,00.0,38.3,30.5,28.9,0001.3,0028.57,0016.98,0015.33
2021-08-29 03:02:00,,0829.5,5.01,0.00,29.1,25.9,00.0,38.3,30.6,29.0,0001.0,0028.53,0016.91,0015.26
2021-08-29 03:03:00,,0829.6,4.99,0.00,29.0,26.3,00.0,38.2,30.7,29.0,0001.1,0029.05,0016.88,0015.21
2021-08-29 03:04:00,,0829.6,5.00,0.00,29.1,26.8,00.0,38.2,30.8,29.1,0001.1,0029.18,0016.84,0015.18
2021-08-29 03:05:00,,0829.5,5.00,0.00,29.1,27.2,00.0,38.2,30.8,29.0,0001.1,0028.43,0016.79,0015.16
2021-08-29 03:06:00,,0829.6,5.00,0.00,29.1,27.5,00.0,38.2,30.9,29.0,0001.1,0027.20,0016.73,0015.12
2021-08-29 03:07:00,,0829.5,5.00,0.00,29.1,27.8,00.0,38.2,31.0,28.9,0001.1,0027.59,0016.76,0015.07
2021-08-29 03:08:00,,0829.5,5.00,0.00,29.2,28.0,00.0,38.2,31.0,28.9,0000.9,0028.19,0016.75,0015.05
2021-08-29 03:09:00,,0829.6,5.00,0.00,29.2,28.2,00.0,38.2,31.1,28.8,0000.9,0028.53,0016.69,0014.99
2021-08-29 03:10:00,,0829.6,5.01,0.00,29.3,28.4,00.0,38.3,31.2,28.8,0001.1,0028.27,0016.65,0014.93
2021-08-29 03:11:00,,0829.8,5.00,0.00,29.3,28.5,00.0,38.3,31.2,28.7,0001.3,0027.18,0016.57,0014.91
2021-08-29 03:12:00,,0829.7,4.99,0.00,29.4,28.6,00.0,38.3,31.3,28.7,0001.4,0027.79,0016.62,0014.88
2021-08-29 03:13:00,,0829.7,5.00,0.00,29.4,28.7,00.0,38.3,31.3,28.6,0001.6,0028.63,0016.64,0014.86
2021-08-29 03:14:00,,0829.8,5.00,0.00,29.5,28.3,00.0,38.4,31.3,28.6,0001.6,0028.36,0016.62,0014.84
2021-08-29 03:15:00,,0829.8,4.99,0.00,29.4,26.4,00.0,38.4,30.8,28.7,0001.5,0028.01,0016.60,0014.81
2021-08-29 03:16:00,,0829.8,5.00,0.00,29.2,25.4,00.0,38.3,30.5,29.1,0001.6,0028.14,0016.62,0014.79
2021-08-29 03:17:00,,0829.8,5.00,0.00,29.1,25.5,00.0,38.3,30.5,29.3,0001.9,0028.75,0016.62,0014.78
2021-08-29 03:18:00,,0829.9,4.99,0.00,29.0,26.0,00.0,38.3,30.6,29.4,0002.1,0028.16,0016.56,0014.75
2021-08-29 03:19:00,,0829.9,5.01,0.00,29.0,26.5,00.0,38.2,30.7,29.5,0002.4,0028.01,0016.46,0014.69
2021-08-29 03:20:00,,0829.9,5.01,0.00,29.0,27.0,00.0,38.2,30.8,29.5,0002.6,0028.25,0016.47,0014.66
2021-08-29 03:21:00,,0829.9,5.00,0.00,29.1,27.4,00.0,38.2,30.9,29.4,0002.5,0028.63,0016.45,0014.64
2021-08-29 03:22:00,,0830.0,5.00,0.00,29.1,27.7,00.0,38.2,30.9,29.4,0002.7,0028.66,0016.47,0014.64
2021-08-29 03:23:00,,0830.0,4.99,0.00,29.2,27.9,00.0,38.2,31.0,29.3,0002.6,0028.23,0016.41,0014.66
2021-08-29 03:24:00,,0830.1,5.02,0.00,29.2,28.1,00.0,38.2,31.1,29.3,0002.6,0027.66,0016.38,0014.64
2021-08-29 03:25:00,,0830.1,5.01,0.00,29.2,28.3,00.0,38.2,31.1,29.3,0002.7,0027.89,0016.37,0014.67
2021-08-29 03:26:00,,0830.0,5.00,0.00,29.3,28.4,00.0,38.3,31.2,29.2,0002.6,0027.91,0016.39,0014.70
2021-08-29 03:27:00,,0830.1,4.99,0.00,29.4,28.6,00.0,38.3,31.3,29.2,0002.6,0028.29,0016.34,0014.74
2021-08-29 03:28:00,,0830.1,4.99,0.00,29.4,28.7,00.0,38.3,31.3,29.1,0002.5,0028.19,0016.33,0014.76
2021-08-29 03:29:00,,0830.1,5.00,0.00,29.5,28.8,00.0,38.3,31.4,29.0,0002.2,0028.98,0016.39,0014.82
2021-08-29 03:30:00,,0830.1,5.01,0.00,29.5,28.4,00.0,38.4,31.3,29.0,0002.0,0028.44,0016.43,0014.89
2021-08-29 03:31:00,,0830.1,5.01,0.00,29.4,26.6,00.0,38.4,30.9,29.1,0001.7,0027.22,0016.42,0014.92
2021-08-29 03:32:00,,0830.1,5.00,0.00,29.2,25.5,00.0,38.3,30.6,29.4,0001.9,0027.12,0016.44,0014.95
2021-08-29 03:33:00,,0830.1,4.99,0.00,29.1,25.6,00.0,38.3,30.6,29.6,0001.8,0027.20,0016.41,0014.96
2021-08-29 03:34:00,,0830.2,5.00,0.00,29.1,26.1,00.0,38.3,30.6,29.7,0002.1,0027.01,0016.42,0014.98
2021-08-29 03:35:00,,0830.1,5.01,0.00,29.0,26.6,00.0,38.2,30.7,29.7,0002.1,0027.58,0016.43,0015.00
2021-08-29 03:36:00,,0830.1,4.99,0.00,29.1,27.0,00.0,38.2,30.8,29.8,0001.9,0028.17,0016.43,0014.98
2021-08-29 03:37:00,,0830.1,5.01,0.00,29.1,27.4,00.0,38.2,30.9,29.7,0002.2,0028.25,0016.39,0014.93
2021-08-29 03:38:00,,0830.1,4.99,0.00,29.1,27.7,00.0,38.2,31.0,29.7,0002.0,0028.17,0016.41,0014.90
2021-08-29 03:39:00,,0830.1,5.00,0.00,29.2,27.9,00.0,38.2,31.0,29.7,0001.9,0028.87,0016.44,0014.91
2021-08-29 03:40:00,,0830.2,5.01,0.00,29.2,28.1,00.0,38.2,31.1,29.7,0001.8,0028.52,0016.43,0014.89
2021-08-29 03:41:00,,0830.2,4.99,0.00,29.3,28.3,00.0,38.3,31.2,29.7,0001.9,0028.39,0016.46,0014.89
2021-08-29 03:42:00,,0830.2,5.01,0.00,29.3,28.4,00.0,38.3,31.2,29.6,0001.9,0029.38,0016.57,0014.93
2021-08-29 03:43:00,,0830.2,5.00,0.00,29.4,28.6,00.0,38.3,31.3,29.7,0001.8,0029.09,0016.65,0014.97
2021-08-29 03:44:00,,0830.3,4.99,0.00,29.4,28.7,00.0,38.3,31.3,29.7,0001.9,0029.37,0016.79,0015.07
2021-08-29 03:45:00,,0830.2,5.01,0.00,29.4,28.7,00.0,38.4,31.4,29.7,0001.7,0030.07,0016.88,0015.14
2021-08-29 03:46:00,,0830.3,5.01,0.00,29.5,28.8,00.0,38.4,31.4,29.6,0001.6,0030.19,0016.94,0015.19
2021-08-29 03:47:00,,0830.2,4.99,0.00,29.5,27.6,00.0,38.4,31.1,29.7,0001.6,0028.70,0016.98,0015.28
2021-08-29 03:48:00,,0830.3,5.01,0.00,29.4,26.4,00.0,38.4,30.8,29.9,0001.5,0028.87,0017.05,0015.37
2021-08-29 03:49:00,,0830.3,5.01,0.00,29.3,26.4,00.0,38.4,30.8,30.0,0001.5,0029.71,0017.21,0015.47
2021-08-29 03:50:00,,0830.3,4.99,0.00,29.2,26.8,00.0,38.4,30.9,30.2,0001.9,0029.55,0017.25,0015.53
2021-08-29 03:51:00,,0830.4,5.01,0.00,29.2,27.2,00.0,38.3,30.9,30.3,0001.9,0029.02,0017.37,0015.61
2021-08-29 03:52:00,,0830.4,4.98,0.00,29.3,27.5,00.0,38.3,31.0,30.3,0001.8,0029.20,0017.44,0015.67
2021-08-29 03:53:00,,0830.4,5.00,0.00,29.3,27.8,00.0,38.3,31.1,30.3,0001.8,0028.75,0017.43,0015.71
2021-08-29 03:54:00,,0830.4,5.00,0.00,29.3,28.1,00.0,38.3,31.2,30.0,0002.1,0028.52,0017.43,0015.77
2021-08-29 03:55:00,,0830.5,5.00,0.00,29.4,28.3,00.0,38.4,31.2,29.8,0002.2,0028.18,0017.45,0015.81
2021-08-29 03:56:00,,0830.5,5.00,0.00,29.4,28.4,00.0,38.4,31.3,29.5,0002.3,0028.81,0017.54,0015.85
2021-08-29 03:57:00,,0830.5,4.99,0.00,29.5,28.5,00.0,38.4,31.3,29.3,0002.4,0029.32,0017.62,0015.92
2021-08-29 03:58:00,,0830.5,4.99,0.00,29.5,28.7,00.0,38.4,31.4,28.8,0002.3,0029.73,0017.69,0015.95
2021-08-29 03:59:00,,0830.6,5.01,0.00,29.5,28.7,00.0,38.5,31.4,28.5,0002.3,0030.05,0017.76,0016.01
